Weather History for Kalispell, MT

Change the Weather History Date:

Friday, August 23, 2013

  Actual Average Record
Temperature  
Mean Temperature 68 °F 62 °F  
Max Temperature 84 °F 80 °F 98 °F (1969)
Min Temperature 52 °F 45 °F 31 °F (1962)
Degree Days  
Heating Degree Days 0 4  
Month to date heating degree days 17 58  
Since 1 June heating degree days 222 351  
Since 1 July heating degree days 36 135  
Cooling Degree Days 3 1  
Month to date cooling degree days 84 54  
Year to date cooling degree days 225 137  
Since 1 June cooling degree days 225 134  
Growing Degree Days 20 (Base 50)    
Moisture  
Dew Point 52 °F    
Average Humidity 60    
Maximum Humidity 86    
Minimum Humidity 33    
Precipitation  
Precipitation 0.01 in 0.03 in 0.60 in (1965)
Month to date precipitation 0.94 0.69  
Year to date precipitation 10.26 11.31  
Snow  
Snow 0.00 in - - ()
Month to date snowfall 0.0  
Year to date snowfall 10.1  
Since 1 July snowfall 0.0  
Snow Depth 0.00 in    
Sea Level Pressure  
Sea Level Pressure 29.81 in    
Wind  
Wind Speed 3 mph (SE)    
Max Wind Speed 17 mph    
Max Gust Speed 22 mph    
Visibility 10 miles    
Events Rain    
T = Trace of Precipitation, MM = Missing Value Source: NWS Daily Summary

Daily Weather History Graph

Daily Weather History Graph

Search for Another Location

Airport:

Trip Planner

Search our weather history database for the weather conditions in past years. The results will help you decide how hot, cold, wet, or windy it might be!

Date:

Astronomy

Aug. 23, 2013 Rise Set
Actual Time 6:42 AM MDT 8:35 PM MDT
Civil Twilight 6:09 AM MDT 9:08 PM MDT
Nautical Twilight 5:28 AM MDT 9:49 PM MDT
Astronomical Twilight 4:42 AM MDT 10:34 PM MDT
Moon 9:35 PM MDT (8/23) 10:01 AM MDT (8/23)
Length of Visible Light 14h 59m
Length of Day
13h 52m
Waning Gibbous, 91% of the Moon is Illuminated
Aug 23
Waning Gibbous
Aug 28
Last Quarter
Sep 5
New
Sep 12
First Quarter
Sep 19
Full

Hourly Weather History & Observations

Time (MDT) Temp. Dew Point Humidity Pressure Visibility Wind Dir Wind Speed Gust Speed Precip Events Conditions
12:55 AM 66.9 °F 48.0 °F 51% 29.81 in 10.0 mi Calm Calm - N/A   Mostly Cloudy
1:55 AM 66.9 °F 48.0 °F 51% 29.84 in 10.0 mi West 5.8 mph - N/A   Overcast
2:55 AM 64.9 °F 53.1 °F 65% 29.87 in 10.0 mi Calm Calm - 0.00 in Rain Light Rain
3:55 AM 62.1 °F 54.0 °F 75% 29.83 in 10.0 mi NE 6.9 mph - 0.00 in   Scattered Clouds
4:55 AM 62.1 °F 53.1 °F 72% 29.84 in 10.0 mi West 6.9 mph - N/A   Partly Cloudy
5:55 AM 60.1 °F 53.1 °F 78% 29.83 in 10.0 mi Calm Calm - N/A   Partly Cloudy
6:55 AM 60.1 °F 53.1 °F 78% 29.82 in 10.0 mi Calm Calm - N/A   Clear
7:55 AM 59.0 °F 53.1 °F 81% 29.84 in 10.0 mi Calm Calm - N/A   Clear
8:55 AM 64.0 °F 54.0 °F 70% 29.86 in 10.0 mi Calm Calm - N/A   Clear
9:55 AM 66.9 °F 55.0 °F 66% 29.85 in 10.0 mi North 3.5 mph - N/A   Clear
10:55 AM 72.0 °F 53.1 °F 51% 29.83 in 10.0 mi Calm Calm - N/A   Clear
11:55 AM 73.9 °F 52.0 °F 46% 29.81 in 10.0 mi Calm Calm - N/A   Clear
12:55 PM 75.9 °F 48.9 °F 38% 29.79 in 10.0 mi ESE 3.5 mph - N/A   Smoke
1:55 PM 79.0 °F 48.0 °F 34% 29.76 in 10.0 mi Variable 3.5 mph - N/A   Smoke
2:55 PM 80.1 °F 48.9 °F 34% 29.75 in 10.0 mi Variable 4.6 mph - N/A   Smoke
3:55 PM 81.0 °F 48.9 °F 33% 29.74 in 10.0 mi SSE 10.4 mph - N/A   Smoke
4:55 PM 79.0 °F 52.0 °F 39% 29.72 in 10.0 mi South 5.8 mph - 0.01 in   Smoke
5:55 PM 73.9 °F 54.0 °F 50% 29.75 in 10.0 mi South 13.8 mph 18.4 mph 0.00 in   Smoke
6:55 PM 70.0 °F 54.0 °F 57% 29.77 in 10.0 mi SSE 4.6 mph - N/A   Smoke
7:55 PM 70.0 °F 53.1 °F 55% 29.78 in 10.0 mi NE 5.8 mph - N/A   Smoke
8:55 PM 64.0 °F 53.1 °F 67% 29.80 in 10.0 mi Calm Calm - N/A   Scattered Clouds
9:55 PM 64.9 °F 52.0 °F 63% 29.81 in 10.0 mi Calm Calm - N/A   Clear
10:55 PM 60.1 °F 51.1 °F 72% 29.82 in 10.0 mi Calm Calm - N/A   Clear
11:55 PM 55.9 °F 51.1 °F 84% 29.82 in 10.0 mi Calm Calm - N/A   Clear